Weather History for St. Stephen, NB

Change the Weather History Date:

Monday, November 18, 2013

  Actual Average Record
Temperature  
Mean Temperature 48 °F -  
Max Temperature 59 °F - - ()
Min Temperature 36 °F - - ()
Degree Days  
Heating Degree Days 18    
Moisture  
Dew Point 48 °F    
Average Humidity 94    
Maximum Humidity 99    
Minimum Humidity 84    
Precipitation  
Precipitation 0.47 in - - ()
Sea Level Pressure  
Sea Level Pressure 29.67 in    
Wind  
Wind Speed 6 mph ()    
Max Wind Speed 15 mph    
Max Gust Speed 29 mph    
T = Trace of Precipitation, MM = Missing Value Source: Averaged Metar Reports

Daily Weather History Graph

Daily Weather History Graph

Search for Another Location

Airport:

Trip Planner

Search our weather history database for the weather conditions in past years. The results will help you decide how hot, cold, wet, or windy it might be!

Date:

Astronomy

Nov. 18, 2013 Rise Set
Actual Time 7:31 AM AST 4:56 PM AST
Civil Twilight 6:59 AM AST 5:28 PM AST
Nautical Twilight 6:23 AM AST 6:04 PM AST
Astronomical Twilight 5:48 AM AST 6:39 PM AST
Moon 5:55 PM AST (11/18) 8:17 AM AST (11/18)
Length of Visible Light 10h 29m
Length of Day
9h 24m
Full, 99% of the Moon is Illuminated
Nov 18
Full
Nov 25
Last Quarter
Dec 2
New
Dec 9
First Quarter
Dec 17
Full

Hourly Weather History & Observations

Time (AST) Temp. Windchill Dew Point Humidity Pressure Visibility Wind Dir Wind Speed Gust Speed Precip Events Conditions
12:00 AM 46.2 °F 44.1 °F 44.4 °F 93% 30.10 in - ESE 4.6 mph - N/A   Unknown
1:00 AM 46.6 °F - 44.1 °F 91% 30.07 in - ESE 4.6 mph - N/A   Unknown
2:00 AM 46 °F - 43 °F 84% 30.03 in - ESE 5.8 mph - -  
2:00 AM 45.7 °F 42.7 °F 42.6 °F 89% 30.03 in - ESE 5.8 mph - N/A   Unknown
3:00 AM 45.9 °F 41.2 °F 44.2 °F 94% 29.98 in - ESE 9.2 mph - N/A   Unknown
4:00 AM 46.6 °F - 45.3 °F 95% 29.94 in - ESE 8.1 mph - 0.02 in   Unknown
5:00 AM 47 °F - 46 °F 94% 29.89 in - East 8.1 mph - -  
5:00 AM 46.9 °F - 45.9 °F 96% 29.89 in - East 8.1 mph - 0.03 in   Unknown
6:00 AM 48.0 °F - 46.9 °F 96% 29.83 in - ESE 10.4 mph 18.4 mph 0.03 in   Unknown
7:00 AM 49.1 °F - 48.0 °F 96% 29.78 in - ESE 10.4 mph 20.7 mph 0.30 in   Unknown
8:00 AM 52 °F - 51 °F 94% 29.73 in - ESE 9.2 mph - -  
8:00 AM 51.6 °F - 50.7 °F 97% 29.73 in - ESE 9.2 mph - 0.08 in   Unknown
9:00 AM 54.3 °F - 53.2 °F 96% 29.67 in - SE 12.7 mph 25.3 mph 0.04 in   Unknown
10:00 AM 56.5 °F - 55.2 °F 96% 29.60 in - SSE 10.4 mph 17.3 mph 0.02 in   Unknown
11:00 AM 58 °F - 57 °F 94% 29.55 in - South 12.7 mph - -  
11:00 AM 58.3 °F - 56.7 °F 94% 29.55 in - South 12.7 mph 24.2 mph 0.13 in   Unknown
12:00 PM 58.6 °F - 56.8 °F 94% 29.49 in - South 15.0 mph 27.6 mph 0.22 in   Unknown
1:00 PM 58.6 °F - 56.7 °F 93% 29.47 in - South 13.8 mph 28.8 mph 0.05 in   Unknown
2:00 PM 58 °F - 56 °F 92% 29.46 in - South 10.4 mph - -  
2:00 PM 58.3 °F - 56.3 °F 93% 29.46 in - South 10.4 mph - 0.02 in   Unknown
3:00 PM 57.9 °F - 55.8 °F 92% 29.46 in - SSW 10.4 mph 20.7 mph N/A   Unknown
4:00 PM 56.1 °F - 53.1 °F 89% 29.47 in - SSW 6.9 mph - N/A   Unknown
5:00 PM 53 °F - 51 °F 92% 29.49 in - South 3.5 mph - -  
5:00 PM 53.4 °F - 51.3 °F 92% 29.49 in - South 3.5 mph - N/A   Unknown
6:00 PM 49.5 °F - 48.0 °F 95% 29.51 in - WSW 2.3 mph - N/A   Unknown
7:00 PM 49.3 °F - 47.5 °F 94% 29.51 in - West 1.2 mph - N/A   Unknown
8:00 PM 42 °F - 41 °F 95% 29.52 in - NE 1.2 mph - -  
8:00 PM 42.4 °F - 41.0 °F 95% 29.52 in - NE 1.2 mph - N/A   Unknown
9:00 PM 39.4 °F - 38.3 °F 96% 29.53 in - NE 1.2 mph - N/A   Unknown
10:00 PM 37.9 °F - 37.0 °F 97% 29.52 in - Calm Calm - N/A   Unknown
11:00 PM 36 °F - 36 °F 99% 29.53 in - Calm Calm - -  
11:00 PM 36.5 °F - 35.8 °F 97% 29.53 in - Calm Calm - N/A   Unknown